Location: Newark
(45.8667°N, 9.7333°E)
Time: 02:54:02
(UTC+00:00)

Transit 4A - Pass Details

Date: 28 January 2020
Orbit: 872 x 973 km, 66.8° (Epoch: 19 February)

Event Time Altitude Azimuth Distance (km) Brightness Sun altitude
Rises 06:31:48 0° 241° (WSW) 3,535 10.6 -3.5°
Reaches altitude 10° 06:34:34 10° 250° (WSW) 2,580 9.8 -3.0°
Maximum altitude 06:39:58 35° 315° (NW) 1,410 8.5 -2.2°
Drops below altitude 10° 06:45:19 10° 21° (NNE) 2,543 10.2 -1.3°
Sets 06:48:02 0° 30° (NNE) 3,478 11.0 -0.9°
